Starlink 3761

operational
NORAD ID: 52262 Int'l Des: 2022-041 Owner: SPXS Country: US Constellation: starlink
LEOCIRCULAR

关于 Starlink 3761

正在加载描述...

实时位置

正在加载3D地球...

即将过境

高度历史

Altitude vs Time

uPlot chart will show altitude changes over time

两行轨道根数

1 52262U 22041B 25296.59496952 .00000117 00000-0 25433-4 0 9999
2 52262 53.2187 4.5137 0001477 101.9787 258.1371 15.08848666193661
Epoch: Oct 23, 2025 • Age: 27 hours

当前状态

高度 543.1 km
速度 7.60 km/s
星下点 41.91°N, 104.6°E
发射日期 Apr 21, 2022
运行时间 3.5 years
类型 internet

技术详情

分类 Payload
质量 297.00 kg
干质量 275.00 kg
总质量 297.00 kg
长度 0.20 m
直径 2.80 m
跨度 9.00 m
形状 Box + pan
制造商 SPXS
平台类型 Starlink
阶段状态 In Orbit
所有者/国家 SPXS/US

大型星座

Loading constellations...